Location: Taupo
(38.6830°S, 176.0830°E)
Time: 22:46:57
(UTC+13:00)

Cosmos 2315 Rocket - Pass Details

Date: 24 January 2019
Orbit: 966 x 1001 km, 82.9° (Epoch: 17 February)

Event Time Altitude Azimuth Distance (km) Brightness Sun altitude
Rises 21:57:12 0° 188° (S) 3,743 7.8 -14.0°
Reaches altitude 10° 21:59:45 10° 189° (S) 2,783 7.1 -14.4°
Maximum altitude 22:06:09 83° 274° (W) 1,005 4.1 -15.3°
Enters shadow 22:12:15 11° 2° (N) 2,662 5.9 -16.2°
